This is the latest recevied weather packets stored in our database for station/object W3JBS-2. If no packets are shown the sender has not sent any weather packets the latest 10 day(s).
| Time | Temp. | Humidity | Pressure | Rain* | Wind** | Luminosity | Snow |
|---|---|---|---|---|---|---|---|
| 1778014322 | 26.67° C | 39% | 1007.8 hPa | 0 mm | - | - | - |
| 1778013422 | 26.67° C | 37% | 1007.9 hPa | 0 mm | - | - | - |
| 1778012521 | 26.67° C | 36% | 1008 hPa | 0 mm | - | - | - |
| 1778011621 | 26.67° C | 37% | 1007.9 hPa | 0 mm | - | - | - |
| 1778010722 | 26.67° C | 36% | 1007.9 hPa | 0 mm | - | - | - |
| 1778009821 | 27.22° C | 36% | 1008.1 hPa | 0 mm | - | - | - |
| 1778008921 | 26.67° C | 36% | 1008.2 hPa | 0 mm | - | - | - |
| 1778008022 | 26.67° C | 38% | 1008.3 hPa | 0 mm | - | - | - |
| 1778007121 | 26.67° C | 39% | 1008.6 hPa | 0 mm | - | - | - |
| 1778006221 | 26.67° C | 40% | 1008.8 hPa | 0 mm | - | - | - |
| 1778005321 | 26.11° C | 42% | 1009.1 hPa | 0 mm | - | 1782 W/m² | - |
| 1778004422 | 26.11° C | 41% | 1009.2 hPa | 0 mm | - | 1782 W/m² | - |
| 1778003521 | 26.11° C | 44% | 1009.3 hPa | 0 mm | - | 1782 W/m² | - |
| 1778002621 | 26.11° C | 44% | 1009.5 hPa | 0 mm | - | 1782 W/m² | - |
| 1778001722 | 26.11° C | 44% | 1009.7 hPa | 0 mm | - | 1782 W/m² | - |
| 1778000821 | 25.56° C | 46% | 1009.8 hPa | 0 mm | - | 1782 W/m² | - |
| 1777999921 | 25.56° C | 46% | 1009.9 hPa | 0 mm | - | 1782 W/m² | - |
| 1777999021 | 25.56° C | 48% | 1009.8 hPa | 0 mm | - | 1781 W/m² | - |
| 1777998121 | 25° C | 48% | 1010 hPa | 0 mm | - | 1782 W/m² | - |
| 1777997221 | 25° C | 45% | 1010 hPa | 0 mm | - | 1781 W/m² | - |
| 1777996321 | 25° C | 48% | 1010.1 hPa | 0 mm | - | 1781 W/m² | - |
| 1777995421 | 24.44° C | 49% | 1010.4 hPa | 0 mm | - | 1781 W/m² | - |
| 1777994521 | 24.44° C | 52% | 1010.4 hPa | 0 mm | - | 1781 W/m² | - |
| 1777993621 | 24.44° C | 49% | 1010.5 hPa | 0 mm | - | 1781 W/m² | - |
| 1777992721 | 23.89° C | 51% | 1010.3 hPa | 0 mm | - | 1781 W/m² | - |
* Rain latest hour (hover to see other rain measurements)
** Current wind speed in m/s (hover to see current wind gust speed)